, AK

(GMT )
Tin City

Weather History for PATC - January, 2014

Change the Weather History Date:

Tuesday, January 7, 2014

  Actual Average Record
Temperature  
Mean Temperature 20 °F -  
Max Temperature 23 °F 7 °F 30 °F (2005)
Min Temperature 17 °F -1 °F -18 °F (2007)
Degree Days  
Heating Degree Days 45    
Moisture  
Dew Point 20 °F    
Average Humidity 98    
Maximum Humidity 100    
Minimum Humidity 93    
Precipitation  
Precipitation 0.00 in - - ()
Sea Level Pressure  
Sea Level Pressure 29.49 in    
Wind  
Wind Speed 21 mph (NNE)    
Max Wind Speed 33 mph    
Max Gust Speed 43 mph    
Visibility 2 miles    
Events Fog , Snow    
Averages and records for this station are not official NWS values.
T = Trace of Precipitation, MM = Missing Value Source: NWS Daily Summary

Daily Weather History Graph

Daily Weather History Graph

Search for Another Location

Airport or City:

Trip Planner

Search our weather history database for the weather conditions in past years. The results will help you decide how hot, cold, wet, or windy it might be!

Date:

Astronomy

Jan. 07, 2014 Rise Set
Actual Time 12:17 PM AKST 4:19 PM AKST
Civil Twilight 10:54 AM AKST 5:42 PM AKST
Nautical Twilight 9:42 AM AKST 6:54 PM AKST
Astronomical Twilight 8:39 AM AKST 7:56 PM AKST
Moon 12:48 PM AKST (1/7) 2:20 AM AKST (1/7)
Length of Visible Light 6h 48m
Length of Day
4h 02m
Waxing Crescent, 47% of the Moon is Illuminated
Jan 7
Waxing Crescent
Jan 7
First Quarter
Jan 15
Full
Jan 23
Last Quarter
Jan 30
New

Hourly Weather History & Observations

Time (AKST) Temp. Windchill Dew Point Humidity Pressure Visibility Wind Dir Wind Speed Gust Speed Precip Events Conditions
12:05 AM 19.4 °F 3.6 °F 19.4 °F 100% 29.48 in 2.5 mi NNE 19.6 mph - N/A   Overcast
12:30 AM 21.2 °F 5.2 °F 19.4 °F 93% 29.48 in 0.8 mi NNE 21.9 mph - N/A   Overcast
12:55 AM 20.5 °F 4.3 °F 19.9 °F 98% 29.49 in 1.2 mi NNE 21.9 mph - N/A   Overcast
1:15 AM 21.2 °F 6.0 °F 19.4 °F 93% 29.48 in 1.8 mi NNE 19.6 mph - N/A   Overcast
1:40 AM 21.2 °F 5.2 °F 19.4 °F 93% 29.48 in 4.0 mi NNE 21.9 mph 31.1 mph N/A   Overcast
1:55 AM 20.5 °F 3.9 °F 19.8 °F 97% 29.48 in 4.0 mi NNE 23.0 mph - N/A   Overcast
2:25 AM 21.2 °F 6.8 °F 21.2 °F 100% 29.50 in 4.0 mi NNE 17.3 mph - N/A Snow Light Snow
2:55 AM 21.4 °F 7.5 °F 20.8 °F 98% 29.49 in 10.0 mi NNE 16.1 mph - N/A Snow Light Snow
3:30 AM 21.2 °F 7.3 °F 21.2 °F 100% 29.49 in 5.0 mi NE 16.1 mph - N/A   Mostly Cloudy
3:55 AM 20.7 °F 6.1 °F 20.1 °F 98% 29.47 in 2.5 mi NNE 17.3 mph - N/A Snow Light Snow Showers
4:15 AM 21.2 °F 6.0 °F 19.4 °F 93% 29.47 in 2.0 mi NNE 19.6 mph 26.5 mph N/A Snow Light Snow Showers
4:40 AM 21.2 °F 7.3 °F 19.4 °F 93% 29.48 in 0.5 mi NNE 16.1 mph - N/A   Mostly Cloudy
4:55 AM 20.5 °F 6.4 °F 19.9 °F 98% 29.48 in 0.5 mi NNE 16.1 mph - N/A Fog Light Freezing Fog
5:06 AM 21.2 °F 6.4 °F 19.4 °F 93% 29.48 in 0.2 mi NNE 18.4 mph - N/A Fog , Snow Light Snow
5:55 AM 20.3 °F 5.2 °F 19.8 °F 98% 29.47 in 0.2 mi NNE 18.4 mph - N/A Fog , Snow Light Snow Showers
6:55 AM 19.8 °F 2.9 °F 19.2 °F 98% 29.45 in 0.2 mi NE 23.0 mph 31.1 mph N/A Snow Light Snow Showers
7:55 AM 18.7 °F 3.1 °F 18.0 °F 97% 29.46 in 0.2 mi NNE 18.4 mph 27.6 mph N/A Fog , Snow Light Snow Showers
8:10 AM 19.4 °F 3.6 °F 17.6 °F 93% 29.46 in 0.2 mi NNE 19.6 mph 28.8 mph N/A Fog Light Freezing Fog
8:55 AM 18.0 °F 1.7 °F 17.2 °F 97% 29.46 in 0.5 mi NNE 19.6 mph 28.8 mph N/A Fog Light Freezing Fog
9:14 AM 17.6 °F 0.1 °F 17.6 °F 100% 29.46 in 0.8 mi NNE 23.0 mph 34.5 mph N/A   Mostly Cloudy
9:34 AM 17.6 °F 0.5 °F 17.6 °F 100% 29.45 in 0.5 mi NNE 21.9 mph 39.1 mph N/A Fog Light Freezing Fog
9:54 AM 17.6 °F -0.3 °F 17.6 °F 100% 29.45 in 3.0 mi NNE 24.2 mph 33.4 mph N/A   Mostly Cloudy
9:55 AM 18.1 °F 0.4 °F 17.4 °F 97% 29.45 in 3.0 mi NNE 24.2 mph 33.4 mph N/A   Mostly Cloudy
10:14 AM 17.6 °F 0.5 °F 17.6 °F 100% 29.46 in 1.0 mi NNE 21.9 mph 42.6 mph N/A   Mostly Cloudy
10:34 AM 17.6 °F 1.7 °F 17.6 °F 100% 29.47 in 1.2 mi NNE 18.4 mph 36.8 mph N/A   Mostly Cloudy
10:54 AM 17.6 °F 1.3 °F 17.6 °F 100% 29.48 in 2.0 mi NNE 19.6 mph 29.9 mph N/A   Mostly Cloudy
10:55 AM 17.8 °F 1.9 °F 17.1 °F 97% 29.48 in 2.0 mi NNE 18.4 mph 29.9 mph N/A   Mostly Cloudy
11:14 AM 17.6 °F 2.2 °F 17.6 °F 100% 29.48 in 4.0 mi NNE 17.3 mph 28.8 mph N/A   Mostly Cloudy
11:55 AM 17.2 °F 1.7 °F 16.2 °F 96% 29.49 in 4.0 mi NNE 17.3 mph 25.3 mph N/A   Mostly Cloudy
12:14 PM 17.6 °F 2.2 °F 15.8 °F 93% 29.50 in 8.0 mi NNE 17.3 mph - N/A Snow Light Snow
12:55 PM 17.4 °F 1.9 °F 16.3 °F 96% 29.50 in 7.0 mi NNE 17.3 mph 25.3 mph N/A Snow Light Snow
1:54 PM 17.6 °F 2.2 °F 17.6 °F 100% 29.51 in 7.0 mi NNE 17.3 mph - N/A   Overcast
1:55 PM 18.0 °F 2.6 °F 17.4 °F 98% 29.51 in 7.0 mi NNE 17.3 mph - N/A   Overcast
2:14 PM 19.4 °F 4.1 °F 17.6 °F 93% 29.50 in 0.8 mi NNE 18.4 mph 26.5 mph N/A Snow Light Snow Showers
2:34 PM 19.4 °F 3.6 °F 19.4 °F 100% 29.51 in 1.0 mi NNE 19.6 mph 27.6 mph N/A Snow Light Snow
2:54 PM 19.4 °F 4.1 °F 19.4 °F 100% 29.51 in 1.5 mi NNE 18.4 mph - N/A Snow Light Snow
2:55 PM 19.0 °F 3.6 °F 18.5 °F 98% 29.51 in 1.5 mi NNE 18.4 mph - N/A Snow Light Snow
3:14 PM 19.4 °F 4.1 °F 19.4 °F 100% 29.50 in 2.5 mi NNE 18.4 mph - N/A Snow Light Snow
3:55 PM 19.9 °F 2.5 °F 19.4 °F 98% 29.49 in 2.0 mi NNE 25.3 mph 34.5 mph N/A Snow Light Snow
4:14 PM 21.2 °F 4.5 °F 19.4 °F 93% 29.49 in 1.8 mi NNE 24.2 mph 35.7 mph N/A Snow Light Snow
4:34 PM 21.2 °F 4.9 °F 19.4 °F 93% 29.50 in 2.5 mi NNE 23.0 mph 32.2 mph N/A Snow Light Snow
4:54 PM 21.2 °F 5.2 °F 21.2 °F 100% 29.50 in 4.0 mi NNE 21.9 mph 29.9 mph N/A Snow Light Snow
4:55 PM 21.0 °F 4.6 °F 20.5 °F 98% 29.49 in 4.0 mi NNE 23.0 mph 31.1 mph N/A Snow Light Snow
5:34 PM 21.2 °F 4.5 °F 21.2 °F 100% 29.49 in 1.5 mi NNE 24.2 mph 36.8 mph N/A Snow Light Snow
5:55 PM 21.7 °F 5.6 °F 21.4 °F 99% 29.49 in 1.5 mi NNE 23.0 mph 36.8 mph N/A Snow Light Snow
6:14 PM 21.2 °F 4.5 °F 21.2 °F 100% 29.49 in 2.0 mi NNE 24.2 mph 34.5 mph N/A Snow Light Snow
6:34 PM 21.2 °F 5.2 °F 21.2 °F 100% 29.50 in 1.5 mi NNE 21.9 mph 38.0 mph N/A Snow Light Snow
6:54 PM 21.2 °F 5.2 °F 21.2 °F 100% 29.49 in 2.0 mi NNE 21.9 mph 38.0 mph N/A Snow Light Snow
6:55 PM 21.4 °F 5.8 °F 21.0 °F 99% 29.49 in 2.0 mi NNE 20.7 mph 38.0 mph N/A Snow Light Snow
7:14 PM 21.2 °F 6.0 °F 21.2 °F 100% 29.49 in 1.8 mi NNE 19.6 mph 41.4 mph N/A Snow Light Snow
7:34 PM 21.2 °F 5.6 °F 21.2 °F 100% 29.50 in 2.0 mi NNE 20.7 mph 36.8 mph N/A Snow Light Snow
7:54 PM 21.2 °F 3.9 °F 21.2 °F 100% 29.49 in 1.2 mi NNE 26.5 mph 39.1 mph N/A Snow Light Snow
7:55 PM 21.9 °F 5.5 °F 21.6 °F 99% 29.49 in 1.2 mi NNE 24.2 mph 39.1 mph N/A Snow Light Snow
8:54 PM 23.0 °F 6.3 °F 23.0 °F 100% 29.50 in 2.0 mi NNE 26.5 mph 39.1 mph N/A Snow Light Snow
8:55 PM 22.6 °F 5.8 °F 22.3 °F 99% 29.50 in 2.0 mi NNE 26.5 mph 39.1 mph N/A Snow Light Snow
9:14 PM 23.0 °F 7.2 °F 23.0 °F 100% 29.50 in 1.5 mi NNE 23.0 mph 35.7 mph N/A Snow Light Snow
9:34 PM 23.0 °F 4.6 °F 23.0 °F 100% 29.50 in 1.2 mi NNE 33.4 mph 41.4 mph N/A Snow Light Snow
9:54 PM 23.0 °F 5.4 °F 23.0 °F 100% 29.50 in 0.8 mi NNE 29.9 mph 42.6 mph N/A Snow Light Snow
9:55 PM 23.7 °F 6.7 °F 23.4 °F 99% 29.50 in 0.8 mi NNE 28.8 mph 42.6 mph N/A Snow Light Snow
10:14 PM 23.0 °F 6.6 °F 23.0 °F 100% 29.51 in 0.5 mi NNE 25.3 mph 35.7 mph N/A Snow Light Snow
10:34 PM 23.0 °F 7.2 °F 23.0 °F 100% 29.52 in 1.0 mi NNE 23.0 mph 33.4 mph N/A Snow Light Snow
10:55 PM 21.9 °F 6.5 °F 21.4 °F 98% 29.52 in 1.0 mi NNE 20.7 mph 36.8 mph N/A Snow Light Snow
11:14 PM 21.2 °F 3.9 °F 21.2 °F 100% 29.52 in 1.5 mi NNE 26.5 mph 34.5 mph N/A Snow Light Snow
11:34 PM 21.2 °F 5.2 °F 21.2 °F 100% 29.53 in 1.8 mi NNE 21.9 mph 32.2 mph N/A Snow Light Snow
11:54 PM 21.2 °F 5.6 °F 19.4 °F 93% 29.53 in 4.0 mi NNE 20.7 mph 33.4 mph N/A Snow Light Snow
11:55 PM 20.7 °F 4.5 °F 20.1 °F 98% 29.53 in 4.0 mi NNE 21.9 mph 33.4 mph N/A Snow Light Snow